Cyril E King Airport

Airport
ICAO code: 
TIST
IATA Code: 
STT
Summary
ICAO Region: 
CARSAM
Location: 
Charlotte Amalie, US Virgin Islands
Serving: 
St Thomas
Elevation: 
24 ft
Coordinates: 
Aerial View: 
18° 20' 9.819" N, 64° 58' 20.181" W
Metar
Observation
TIST 040853Z AUTO 08005KT 10SM SCT060 26/23 A3005 RMK AO2 RAB42E51 SLP176 P0000 60000 T02610233 56002 $
Station
Charlotte Amalie St. Thomas, Cyril E. King Airport
Date/Time
2022-07-04 08:53:00
Wind direction
80°
Wind speed
05 kts
Lowest cloud amount
scattered clouds
Temperature
26.1°C
Dew point
23.3°C
Humidity
84%
Weather condition
n/a

Cyril E. King International Airport is a public airport located 3 km west of the central business district of Charlotte Amalie on the island of St. Thomas in the United States Virgin Islands.

Climatology

Tropical monsoon climate (Köppen climate classification Am)

Runways

Designator Length Width Surface Rops
10/28 2134 46 ASP Yes/Yes
Airport map: 
Aerial View: 

SKYbrary Partners:

Safety knowledge contributed by: